This is the latest recevied weather packets stored in our database for station/object KQ4OSL. If no packets are shown the sender has not sent any weather packets the latest 10 day(s).
| Time | Temp. | Humidity | Pressure | Rain* | Wind** | Luminosity | Snow |
|---|---|---|---|---|---|---|---|
| 1777320125 | 23.89° C | 66% | 1020.8 hPa | 0 mm | - | 517 W/m² | - |
| 1777319822 | 23.89° C | 65% | 1020.9 hPa | 0 mm | - | 526 W/m² | - |
| 1777319518 | 23.89° C | 65% | 1020.8 hPa | 0 mm | - | 538 W/m² | - |
| 1777319216 | 23.89° C | 63% | 1020.8 hPa | 0 mm | - | 551 W/m² | - |
| 1777318913 | 24.44° C | 64% | 1020.9 hPa | 0 mm | - | 566 W/m² | - |
| 1777318609 | 23.89° C | 64% | 1021.1 hPa | 0 mm | - | 574 W/m² | - |
| 1777318306 | 23.89° C | 63% | 1020.9 hPa | 0 mm | - | 592 W/m² | - |
| 1777318002 | 23.89° C | 64% | 1021 hPa | 0 mm | - | 597 W/m² | - |
| 1777317700 | 23.89° C | 64% | 1021.2 hPa | 0 mm | - | 607 W/m² | - |
| 1777317397 | 23.89° C | 64% | 1021 hPa | 0 mm | - | 620 W/m² | - |
| 1777317092 | 23.33° C | 63% | 1021 hPa | 0 mm | - | 630 W/m² | - |
| 1777316790 | 23.89° C | 65% | 1021.1 hPa | 0 mm | - | 640 W/m² | - |
| 1777316486 | 23.89° C | 66% | 1020.8 hPa | 0 mm | - | 646 W/m² | - |
| 1777316183 | 23.89° C | 65% | 1021 hPa | 0 mm | - | 653 W/m² | - |
| 1777315881 | 23.33° C | 65% | 1021 hPa | 0 mm | - | 665 W/m² | - |
| 1777315579 | 23.33° C | 64% | 1021 hPa | 0 mm | - | 671 W/m² | - |
| 1777315277 | 23.33° C | 64% | 1021.1 hPa | 0 mm | - | 677 W/m² | - |
| 1777314974 | 23.89° C | 64% | 1021 hPa | 0 mm | - | 684 W/m² | - |
| 1777314670 | 23.89° C | 63% | 1021 hPa | 0 mm | - | 693 W/m² | - |
| 1777314367 | 23.33° C | 64% | 1020.9 hPa | 0 mm | - | 698 W/m² | - |
| 1777314064 | 23.33° C | 63% | 1021.2 hPa | 0 mm | - | 706 W/m² | - |
| 1777313761 | 23.33° C | 66% | 1021.1 hPa | 0 mm | - | 706 W/m² | - |
| 1777313459 | 22.78° C | 65% | 1021.1 hPa | 0 mm | - | 713 W/m² | - |
| 1777313156 | 22.78° C | 65% | 1021.1 hPa | 0 mm | - | 719 W/m² | - |
| 1777312851 | 22.78° C | 66% | 1021.4 hPa | 0 mm | - | 724 W/m² | - |
* Rain latest hour (hover to see other rain measurements)
** Current wind speed in m/s (hover to see current wind gust speed)